TimeEST,TemperatureF,Dew PointF,Humidity,Sea Level PressureIn,VisibilityMPH,Wind Direction,Wind SpeedMPH,Gust SpeedMPH,PrecipitationIn,Events,Conditions,WindDirDegrees,DateUTC
12:14 AM,15.8,12.2,86,30.20,2.0,East,6.9,-,N/A,Snow,Light Snow,80,2013-02-07 05:14:00
12:35 AM,14.0,12.2,93,30.21,1.8,NE,5.8,-,N/A,Snow,Light Snow,50,2013-02-07 05:35:00
12:54 AM,14.0,12.2,93,30.21,1.5,ENE,6.9,-,N/A,Snow,Light Snow,70,2013-02-07 05:54:00
1:15 AM,12.2,10.4,92,30.20,2.0,ENE,8.1,-,N/A,Snow,Light Snow,60,2013-02-07 06:15:00
1:34 AM,12.2,10.4,92,30.21,3.0,East,8.1,-,N/A,Snow,Light Snow,80,2013-02-07 06:34:00
1:55 AM,12.2,10.4,92,30.21,2.5,ENE,6.9,-,N/A,Snow,Light Snow,70,2013-02-07 06:55:00
2:14 AM,12.2,10.4,92,30.21,1.5,ENE,8.1,-,N/A,Snow,Light Snow,60,2013-02-07 07:14:00
2:34 AM,12.2,10.4,92,30.22,2.5,NE,5.8,-,N/A,Snow,Light Snow,50,2013-02-07 07:34:00
2:55 AM,12.2,8.6,85,30.22,2.5,NE,6.9,-,N/A,Snow,Light Snow,50,2013-02-07 07:55:00
3:14 AM,12.2,8.6,85,30.21,1.8,ENE,8.1,-,N/A,Snow,Light Snow,60,2013-02-07 08:14:00
3:35 AM,12.2,8.6,85,30.21,2.5,ENE,8.1,-,N/A,Snow,Light Snow,60,2013-02-07 08:35:00
3:55 AM,12.2,8.6,85,30.20,2.5,ENE,6.9,-,N/A,Snow,Light Snow,70,2013-02-07 08:55:00
4:14 AM,12.2,8.6,85,30.19,1.8,ENE,6.9,-,N/A,Snow,Light Snow,70,2013-02-07 09:14:00
4:35 AM,12.2,10.4,92,30.20,3.0,ENE,4.6,-,N/A,Snow,Light Snow,60,2013-02-07 09:35:00
4:55 AM,12.2,8.6,85,30.20,3.0,ENE,8.1,-,N/A,Snow,Light Snow,60,2013-02-07 09:55:00
5:14 AM,12.2,8.6,85,30.20,2.5,ENE,6.9,-,N/A,Snow,Light Snow,70,2013-02-07 10:14:00
5:35 AM,12.2,8.6,85,30.19,2.5,ENE,6.9,-,N/A,Snow,Light Snow,70,2013-02-07 10:35:00
5:54 AM,12.2,8.6,85,30.19,2.5,ENE,6.9,-,N/A,Snow,Light Snow,60,2013-02-07 10:54:00
6:15 AM,12.2,8.6,85,30.19,3.0,NE,8.1,-,N/A,Snow,Light Snow,50,2013-02-07 11:15:00
6:35 AM,12.2,8.6,85,30.19,2.5,ENE,8.1,-,N/A,Snow,Light Snow,70,2013-02-07 11:35:00
6:54 AM,12.2,8.6,85,30.19,7.0,ENE,8.1,-,N/A,Snow,Light Snow,70,2013-02-07 11:54:00
7:15 AM,12.2,8.6,85,30.19,7.0,ENE,8.1,-,N/A,Snow,Light Snow,60,2013-02-07 12:15:00
7:34 AM,12.2,8.6,85,30.19,7.0,ENE,9.2,-,N/A,Snow,Light Snow,60,2013-02-07 12:34:00
7:54 AM,12.2,10.4,92,30.19,10.0,ENE,9.2,-,N/A,Snow,Light Snow,60,2013-02-07 12:54:00
8:15 AM,12.2,8.6,85,30.20,7.0,ENE,8.1,-,N/A,Snow,Light Snow,60,2013-02-07 13:15:00
8:34 AM,12.2,10.4,92,30.20,5.0,NE,9.2,-,N/A,Snow,Light Snow,50,2013-02-07 13:34:00
8:55 AM,12.2,8.6,85,30.21,4.0,ENE,9.2,-,N/A,Snow,Light Snow,60,2013-02-07 13:55:00
9:15 AM,12.2,8.6,85,30.21,2.5,ENE,9.2,-,N/A,Snow,Light Snow,60,2013-02-07 14:15:00
9:34 AM,12.2,8.6,85,30.21,2.5,ENE,10.4,-,N/A,Snow,Light Snow,60,2013-02-07 14:34:00
9:55 AM,12.2,8.6,85,30.22,2.5,ENE,8.1,-,N/A,Snow,Light Snow,60,2013-02-07 14:55:00
10:15 AM,12.2,8.6,85,30.22,2.0,ENE,10.4,-,N/A,Snow,Light Snow,60,2013-02-07 15:15:00
10:34 AM,12.2,8.6,85,30.21,1.8,ENE,10.4,-,N/A,Snow,Light Snow,60,2013-02-07 15:34:00
10:55 AM,12.2,10.4,92,30.22,2.5,ENE,9.2,-,N/A,Snow,Light Snow,60,2013-02-07 15:55:00
11:14 AM,12.2,10.4,92,30.21,4.0,NE,9.2,-,N/A,Snow,Light Snow,50,2013-02-07 16:14:00
11:35 AM,12.2,10.4,92,30.21,3.0,ENE,12.7,-,N/A,Snow,Light Snow,60,2013-02-07 16:35:00
11:55 AM,12.2,10.4,92,30.22,4.0,NE,12.7,-,N/A,Snow,Light Snow,50,2013-02-07 16:55:00
12:14 PM,12.2,10.4,92,30.21,2.5,NE,10.4,-,N/A,Snow,Light Snow,50,2013-02-07 17:14:00
12:35 PM,14.0,10.4,86,30.20,3.0,ENE,10.4,-,N/A,Snow,Light Snow,60,2013-02-07 17:35:00
12:54 PM,14.0,10.4,86,30.19,4.0,ENE,12.7,-,N/A,Snow,Light Snow,70,2013-02-07 17:54:00
1:14 PM,14.0,10.4,86,30.19,7.0,NE,11.5,-,N/A,Snow,Light Snow,50,2013-02-07 18:14:00
1:35 PM,15.8,10.4,79,30.19,10.0,NE,10.4,-,N/A,Snow,Light Snow,50,2013-02-07 18:35:00
1:54 PM,15.8,12.2,86,30.18,7.0,NE,11.5,-,N/A,Snow,Light Snow,40,2013-02-07 18:54:00
2:15 PM,15.8,12.2,86,30.16,10.0,NE,10.4,-,N/A,,Overcast,40,2013-02-07 19:15:00
2:35 PM,15.8,10.4,79,30.16,10.0,NE,11.5,-,N/A,Snow,Light Snow,40,2013-02-07 19:35:00
2:54 PM,15.8,10.4,79,30.16,10.0,NE,10.4,-,N/A,,Overcast,40,2013-02-07 19:54:00
3:15 PM,15.8,10.4,79,30.16,10.0,NNE,10.4,-,N/A,,Overcast,30,2013-02-07 20:15:00
3:35 PM,15.8,10.4,79,30.17,10.0,NE,11.5,-,N/A,,Overcast,40,2013-02-07 20:35:00
3:54 PM,15.8,12.2,86,30.17,10.0,NE,11.5,-,N/A,,Overcast,50,2013-02-07 20:54:00
4:15 PM,15.8,12.2,86,30.16,10.0,NE,10.4,-,N/A,,Overcast,50,2013-02-07 21:15:00
4:34 PM,15.8,12.2,86,30.16,10.0,NE,12.7,-,N/A,Snow,Light Snow,40,2013-02-07 21:34:00
4:55 PM,15.8,12.2,86,30.16,10.0,NE,9.2,17.3,N/A,Snow,Light Snow,40,2013-02-07 21:55:00
5:14 PM,15.8,12.2,86,30.16,10.0,NE,8.1,-,N/A,,Overcast,40,2013-02-07 22:14:00
5:34 PM,15.8,12.2,86,30.16,10.0,NNE,8.1,-,N/A,,Overcast,30,2013-02-07 22:34:00
5:55 PM,15.8,12.2,86,30.16,10.0,NNE,8.1,-,N/A,,Overcast,20,2013-02-07 22:55:00
6:14 PM,15.8,12.2,86,30.16,7.0,NNE,6.9,-,N/A,Snow,Light Snow,20,2013-02-07 23:14:00
6:35 PM,15.8,12.2,86,30.16,7.0,NNE,6.9,-,N/A,Snow,Light Snow,30,2013-02-07 23:35:00
6:54 PM,15.8,12.2,86,30.17,5.0,NNE,8.1,-,N/A,Snow,Light Snow,20,2013-02-07 23:54:00
7:15 PM,15.8,12.2,86,30.16,7.0,NNE,6.9,-,N/A,Snow,Light Snow,20,2013-02-08 00:15:00
7:35 PM,15.8,12.2,86,30.17,10.0,NNE,6.9,-,N/A,Snow,Light Snow,20,2013-02-08 00:35:00
7:54 PM,15.8,12.2,86,30.17,10.0,NNE,8.1,-,N/A,,Overcast,20,2013-02-08 00:54:00
8:15 PM,15.8,14.0,93,30.17,10.0,NNE,8.1,-,N/A,Snow,Light Snow,20,2013-02-08 01:15:00
8:35 PM,15.8,14.0,93,30.17,10.0,NNE,6.9,-,N/A,,Overcast,20,2013-02-08 01:35:00
8:54 PM,15.8,14.0,93,30.17,10.0,NNE,9.2,-,N/A,,Overcast,30,2013-02-08 01:54:00
9:15 PM,15.8,12.2,86,30.17,10.0,NNE,10.4,-,N/A,Snow,Light Snow,30,2013-02-08 02:15:00
9:34 PM,15.8,12.2,86,30.17,10.0,NNE,8.1,-,N/A,Snow,Light Snow,30,2013-02-08 02:34:00
9:54 PM,15.8,12.2,86,30.17,10.0,NNE,8.1,-,N/A,Snow,Light Snow,30,2013-02-08 02:54:00
10:15 PM,15.8,14.0,93,30.17,10.0,NNE,8.1,-,N/A,,Overcast,30,2013-02-08 03:15:00
10:34 PM,15.8,14.0,93,30.17,10.0,NNE,8.1,-,N/A,,Overcast,30,2013-02-08 03:34:00
10:55 PM,15.8,12.2,86,30.17,10.0,NNE,9.2,-,N/A,,Overcast,30,2013-02-08 03:55:00
11:15 PM,15.8,12.2,86,30.17,10.0,NNE,9.2,-,N/A,,Overcast,30,2013-02-08 04:15:00
11:34 PM,15.8,12.2,86,30.17,10.0,NNE,6.9,-,N/A,,Overcast,30,2013-02-08 04:34:00
11:55 PM,15.8,12.2,86,30.17,10.0,NNE,8.1,-,N/A,,Overcast,30,2013-02-08 04:55:00